Location: Maiden
(35.5760°N, 81.2120°W)
Time: 07:44:06
(UTC-04:00)

Cosmos 1400 Rocket - Pass Details

Date: 14 June 2018
Orbit: 522 x 569 km, 81.2° (Epoch: 16 October)

Event Time Altitude Azimuth Distance (km) Brightness Sun altitude
Exits shadow 22:55:07 19° 221° (SW) 1,358 4.7 -21.2°
Maximum altitude 22:57:36 40° 282° (WNW) 835 4.0 -21.5°
Drops below altitude 10° 23:01:26 10° 352° (N) 1,839 6.3 -22.0°
Sets 23:03:42 0° 0° (N) 2,729 7.2 -22.3°
